[[{"header":{"parameterUnit":"m.s-1","parameterCategory":1,"la1":30.2991,"la2":30.254,"lo1":-89.0895,"lo2":-89.0444,"dy":0.0017,"dx":0.0017,"nx":28,"ny":28,"refTime":"2024-07-22T21:00:00:Z","depth":0,"parameterNumber":2,"parameterNumberName":"U-component_of_WINDS"},"data":[0,0,0,0,0,0,0,0,0,0,0,0,0,0,0,0,0,0,0,0,0,0,0,0,0,0,0,0,0,0,0,0,0,0,0,0,0,0,0,0,0,0,0,0,0,0,0,0,0,0,0,0,0,0,0,0,0,0,-1.6856,-1.6855,0,-1.6769,-1.6768,-1.6767,-1.6679,-1.6678,-1.6677,-1.6676,-1.6586,-1.6585,-1.6584,0,0,0,0,0,0,0,0,0,0,0,0,0,-1.6946,-1.6945,-1.6856,-1.6855,-1.6854,-1.6769,-1.6768,-1.6767,-1.6679,-1.6678,-1.6676,-1.6675,-1.6587,-1.6585,-1.6584,0,0,0,0,0,0,0,0,0,0,0,0,0,-1.6888,-1.6944,-1.6856,-1.68,-1.6794,-1.6769,-1.6768,-1.6767,-1.668,-1.6678,-1.6676,-1.6674,-1.6587,-1.6585,-1.6584,-1.6607,0,0,-1.6578,-1.6577,0,0,0,0,0,0,0,0,-1.6891,-1.6885,-1.6809,-1.6804,-1.6797,-1.6733,-1.6767,-1.6713,-1.668,-1.6723,-1.6675,-1.6673,-1.6637,-1.6631,-1.6618,-1.6603,-1.6599,-1.6578,-1.6576,-1.6576,-1.6575,0,0,0,0,0,0,0,-1.6895,-1.6888,-1.6821,-1.6808,-1.6801,-1.6779,-1.6769,-1.6756,-1.6691,-1.6719,-1.6712,-1.6703,-1.6633,-1.662,-1.6615,-1.6598,-1.6578,-1.6576,-1.6575,-1.6574,-1.6599,-1.66,0,0,0,0,0,0,-1.6908,-1.6892,-1.6824,-1.6819,-1.6841,-1.6779,-1.6767,-1.6755,-1.6691,-1.6679,-1.6705,-1.67,-1.6624,-1.6618,-1.6612,-1.6635,-1.6576,-1.6574,-1.6573,-1.6597,-1.6599,-1.6601,0,0,0,0,0,0,-1.691,-1.6903,-1.6828,-1.6854,-1.6842,-1.6779,-1.6766,-1.6755,-1.6742,-1.668,-1.6668,-1.6704,-1.6623,-1.6615,-1.6609,-1.6631,-1.6573,-1.6571,-1.6595,-1.6598,-1.66,-1.6683,0,0,0,0,0,0,-1.6913,-1.6904,-1.6912,-1.6854,-1.6841,-1.6827,-1.6768,-1.6754,-1.6739,-1.6731,-1.6676,-1.6665,-1.6621,-1.6613,-1.6607,-1.6627,-1.657,-1.6593,-1.6596,-1.6599,-1.6678,-1.6688,-1.6697,0,0,0,0,0,-1.6917,-1.6939,-1.6913,-1.6906,-1.685,-1.6828,-1.6821,-1.6769,-1.6741,-1.6749,-1.6709,-1.6667,-1.663,-1.6613,-1.6606,-1.6626,-1.6591,-1.6595,-1.6599,-1.6674,-1.6686,-1.6696,0,0,0,0,0,0,-1.7001,-1.693,-1.6901,-1.6905,-1.6873,-1.6813,-1.6821,-1.6784,-1.6759,-1.6753,-1.669,-1.6678,-1.668,-1.6652,-1.6635,-1.6646,-1.6604,-1.6607,-1.6663,-1.6675,-1.6684,-1.669,-1.6568,0,0,0,0,0,-1.702,-1.7008,-1.6947,-1.6957,-1.6942,-1.6885,-1.6873,-1.6837,-1.6801,-1.6787,-1.6747,-1.6714,-1.6695,-1.6683,-1.6662,-1.6674,-1.6661,-1.6684,-1.6694,-1.6702,-1.6705,-1.6709,-1.6719,-1.6614,-1.6614,-1.6614,0,0,-1.7059,-1.7019,-1.7015,-1.6972,-1.6943,-1.6932,-1.6874,-1.6865,-1.6856,-1.6785,-1.6777,-1.6748,-1.6707,-1.671,-1.671,-1.6687,-1.6731,-1.6707,-1.6714,-1.6712,-1.6714,-1.6724,-1.6733,-1.6617,-1.6617,-1.6616,0,0,-1.7124,-1.7093,-1.7098,-1.707,-1.7027,-1.6989,-1.6991,-1.6936,-1.6914,-1.6905,-1.6852,-1.6841,-1.681,-1.6782,-1.6765,-1.6822,-1.6782,-1.6817,-1.6865,-1.687,-1.6878,-1.6885,-1.6905,-1.6913,-1.682,-1.682,-1.682,0,-1.7178,-1.7159,-1.7105,-1.7098,-1.7081,-1.7018,-1.7022,-1.6998,-1.6951,-1.694,-1.6916,-1.6875,-1.6843,-1.684,-1.6854,-1.6842,-1.6841,-1.6822,-1.6882,-1.6888,-1.6894,-1.6912,-1.6919,-1.6825,-1.6824,-1.6824,-1.6823,0,-1.7227,-1.7215,-1.7224,-1.718,-1.7164,-1.7163,-1.7109,-1.7099,-1.7064,-1.7029,-1.7022,-1.6981,-1.6951,-1.6948,-1.6914,-1.6939,-1.6927,-1.6893,-1.685,-1.6909,-1.6925,-1.6931,-1.6831,-1.683,-1.6828,-1.6827,0,0,-1.7341,-1.7268,-1.7272,-1.7252,-1.72,-1.719,-1.7187,-1.7157,-1.715,-1.712,-1.7116,-1.7091,-1.706,-1.704,-1.7002,-1.7007,-1.7054,-1.6972,-1.697,-1.6988,-1.7079,-1.7104,-1.7113,-1.7028,-1.7029,-1.703,-1.7083,0,-1.7397,-1.7386,-1.7338,-1.7342,-1.733,-1.7271,-1.7268,-1.7236,-1.7204,-1.7189,-1.7153,-1.7136,-1.7097,-1.7084,-1.7086,-1.7048,-1.7071,-1.7044,-1.7022,-1.7022,-1.7033,-1.7121,-1.7147,-1.7199,-1.7088,-1.7089,-1.709,0,-1.746,-1.7434,-1.7437,-1.7387,-1.738,-1.7378,-1.7348,-1.7334,-1.7298,-1.7274,-1.7252,-1.721,-1.7204,-1.7165,-1.7155,-1.7137,-1.7126,-1.7106,-1.7107,-1.7101,-1.7059,-1.7118,-1.7214,-1.7221,-1.71,-1.7099,-1.7098,0,-1.7542,-1.7508,-1.7505,-1.749,-1.7431,-1.7431,-1.7407,-1.7368,-1.7354,-1.7328,-1.7318,-1.7291,-1.7277,-1.7257,-1.7209,-1.7186,-1.7205,-1.7162,-1.7184,-1.7185,-1.7189,-1.7189,-1.7284,-1.7185,-1.7185,-1.7185,-1.7184,0,-1.7608,-1.7612,-1.7541,-1.754,-1.7543,-1.7488,-1.7492,-1.7462,-1.7429,-1.742,-1.7368,-1.7361,-1.7299,-1.7285,-1.7248,-1.7245,-1.7239,-1.7219,-1.7209,-1.7223,-1.7225,-1.7213,-1.7208,-1.7186,-1.7186,-1.7186,-1.7185,0,-1.7699,-1.7652,-1.7645,-1.7591,-1.7577,-1.7582,-1.7535,-1.7531,-1.7496,-1.7486,-1.7481,-1.7426,-1.7407,-1.7358,-1.7326,-1.7301,-1.7308,-1.729,-1.732,-1.7313,-1.7338,-1.7336,-1.7427,-1.7436,-1.7333,-1.7334,-1.7335,0,-1.7744,-1.7745,-1.7692,-1.7682,-1.766,-1.7646,-1.7631,-1.7578,-1.7564,-1.7524,-1.7525,-1.7502,-1.748,-1.7453,-1.741,-1.7386,-1.7366,-1.74,-1.7362,-1.7376,-1.7365,-1.7365,-1.7365,-1.7408,-1.7409,-1.741,-1.7411,0,-1.7828,-1.7805,-1.7786,-1.7759,-1.7743,-1.772,-1.7693,-1.7689,-1.7628,-1.7617,-1.7597,-1.758,-1.7549,-1.7526,-1.7496,-1.747,-1.7431,-1.7424,-1.7428,-1.7441,-1.7458,-1.7448,-1.7342,-1.7422,-1.7421,-1.742,-1.7419,-1.7419,-1.7896,-1.7895,-1.7857,-1.7838,-1.7812,-1.7789,-1.7783,-1.7748,-1.773,-1.77,-1.767,-1.7653,-1.7617,-1.7572,-1.755,-1.7536,-1.7515,-1.7521,-1.7522,-1.7524,-1.753,-1.7462,-1.753,-1.753,-1.7529,-1.7529,-1.7529,0,-1.7977,-1.795,-1.7933,-1.7897,-1.7883,-1.7848,-1.7817,-1.7807,-1.7793,-1.7763,-1.7743,-1.7721,-1.7699,-1.7655,-1.763,-1.7627,-1.7609,-1.7623,-1.7621,-1.7616,-1.755,-1.7549,-1.7638,-1.7638,-1.7638,-1.7638,-1.7638,-1.7638,-1.8017,-1.8013,-1.7986,-1.7969,-1.7942,-1.7925,-1.791,-1.7889,-1.7864,-1.7842,-1.7824,-1.7796,-1.776,-1.7732,-1.7711,-1.7698,-1.7691,-1.771,-1.7692,-1.7631,-1.7621,-1.7611,-1.7609,-1.771,-1.771,-1.7759,-1.7759,-1.776]},{"header":{"parameterUnit":"m.s-1","parameterCategory":1,"la1":30.2991,"la2":30.254,"lo1":-89.0895,"lo2":-89.0444,"dy":0.0017,"dx":0.0017,"nx":28,"ny":28,"refTime":"2024-07-22T21:00:00:Z","depth":0,"parameterNumber":3,"parameterNumberName":"V-component_of_WINDS"},"data":[0,0,0,0,0,0,0,0,0,0,0,0,0,0,0,0,0,0,0,0,0,0,0,0,0,0,0,0,0,0,0,0,0,0,0,0,0,0,0,0,0,0,0,0,0,0,0,0,0,0,0,0,0,0,0,0,0,0,1.6991,1.6991,0,1.6974,1.6974,1.6973,1.6996,1.6997,1.6998,1.6999,1.6979,1.6978,1.6977,0,0,0,0,0,0,0,0,0,0,0,0,0,1.7042,1.7041,1.6991,1.6991,1.6991,1.6974,1.6974,1.6973,1.6996,1.6997,1.6998,1.6999,1.698,1.6978,1.6976,0,0,0,0,0,0,0,0,0,0,0,0,0,1.7022,1.7041,1.6991,1.7,1.7001,1.6974,1.6974,1.6973,1.6996,1.6997,1.6999,1.7,1.698,1.6978,1.6976,1.6939,0,0,1.697,1.6969,0,0,0,0,0,0,0,0,1.7023,1.702,1.6999,1.6999,1.7,1.6989,1.6985,1.6962,1.6996,1.6998,1.6999,1.7,1.6981,1.6979,1.6973,1.6938,1.6937,1.697,1.6969,1.6968,1.6968,0,0,0,0,0,0,0,1.7025,1.7021,1.6984,1.6999,1.6999,1.7005,1.7003,1.698,1.6983,1.6998,1.6999,1.6997,1.6982,1.6975,1.6973,1.6937,1.697,1.6968,1.6967,1.6966,1.6871,1.687,0,0,0,0,0,0,1.7025,1.7022,1.6985,1.6984,1.7015,1.7003,1.7001,1.6991,1.6983,1.6983,1.6996,1.6998,1.6978,1.6975,1.6972,1.6928,1.6968,1.6966,1.6965,1.6873,1.6871,1.687,0,0,0,0,0,0,1.7026,1.7022,1.6985,1.7003,1.6999,1.7,1.6989,1.699,1.6983,1.6982,1.6982,1.6989,1.6979,1.6975,1.6947,1.6928,1.6965,1.6964,1.6874,1.6872,1.687,1.684,0,0,0,0,0,0,1.7028,1.7022,1.7008,1.7003,1.6998,1.6961,1.6988,1.6989,1.698,1.6983,1.6975,1.6975,1.6979,1.695,1.6945,1.6926,1.6962,1.6876,1.6873,1.6871,1.6843,1.6837,1.6832,0,0,0,0,0,1.7029,1.6999,1.7007,1.7002,1.6981,1.696,1.6957,1.6963,1.6978,1.6964,1.6964,1.6975,1.6931,1.6947,1.6942,1.6921,1.6877,1.6874,1.6871,1.6845,1.6838,1.6832,0,0,0,0,0,0,1.7001,1.6999,1.7007,1.6975,1.6967,1.6964,1.6946,1.6956,1.6943,1.6946,1.6954,1.6952,1.6923,1.692,1.6938,1.6886,1.6907,1.6902,1.6888,1.6882,1.6877,1.6878,1.696,0,0,0,0,0,1.6991,1.6975,1.6974,1.6945,1.6941,1.6944,1.6935,1.6941,1.6933,1.693,1.6927,1.6919,1.6903,1.6893,1.6878,1.6843,1.6841,1.6826,1.6821,1.6817,1.6813,1.6794,1.6787,1.686,1.686,1.686,0,0,1.697,1.6967,1.6956,1.6939,1.6934,1.6917,1.6941,1.6922,1.6909,1.6927,1.6901,1.6899,1.689,1.6858,1.6844,1.6855,1.6793,1.6813,1.681,1.6808,1.679,1.6783,1.6777,1.6858,1.6858,1.6858,0,0,1.6922,1.6918,1.6894,1.6889,1.6882,1.6885,1.6879,1.6874,1.6874,1.6848,1.6861,1.6846,1.6819,1.6813,1.6806,1.6758,1.6768,1.6753,1.6725,1.6707,1.6701,1.6696,1.6679,1.6673,1.6749,1.6749,1.6749,0,1.6896,1.6871,1.6881,1.686,1.6853,1.687,1.6846,1.684,1.6828,1.6822,1.6834,1.6802,1.6797,1.6764,1.6753,1.6747,1.674,1.6753,1.6702,1.6697,1.6692,1.6675,1.6669,1.6747,1.6747,1.6747,1.6748,0,1.684,1.6823,1.6804,1.6793,1.6784,1.6761,1.6767,1.6756,1.6763,1.6765,1.6739,1.6734,1.6719,1.6712,1.6718,1.668,1.6687,1.6701,1.6722,1.6683,1.6668,1.6661,1.6744,1.6745,1.6746,1.6746,0,0,1.6772,1.6768,1.6761,1.6756,1.675,1.6737,1.6716,1.6702,1.6693,1.6684,1.6667,1.6644,1.6657,1.6649,1.6655,1.6639,1.6601,1.6654,1.6654,1.6644,1.6559,1.6549,1.6541,1.6609,1.6608,1.6607,1.656,0,1.6724,1.6688,1.6697,1.6661,1.6645,1.6662,1.6644,1.6638,1.6639,1.6625,1.6627,1.661,1.6628,1.6624,1.6609,1.6609,1.6584,1.6613,1.6592,1.6591,1.6592,1.6533,1.6522,1.6478,1.6554,1.6553,1.6552,0,1.6663,1.6654,1.6617,1.6614,1.6608,1.6591,1.658,1.6567,1.6561,1.6563,1.6555,1.6565,1.6544,1.6566,1.6537,1.6557,1.6549,1.6548,1.6546,1.6543,1.6568,1.6528,1.6464,1.6457,1.6543,1.6544,1.6544,0,1.6617,1.6595,1.657,1.6566,1.6562,1.655,1.6548,1.6544,1.6535,1.6526,1.652,1.6508,1.6501,1.6491,1.6497,1.6513,1.6467,1.649,1.6468,1.6467,1.6456,1.6456,1.6388,1.6452,1.6453,1.6453,1.6453,0,1.6562,1.6538,1.6549,1.6533,1.6508,1.6518,1.6492,1.6492,1.6488,1.6473,1.6487,1.6473,1.6482,1.6468,1.6472,1.6448,1.6445,1.6445,1.6447,1.6443,1.6443,1.6437,1.644,1.6451,1.6451,1.6452,1.6452,0,1.6505,1.6511,1.6485,1.6485,1.6484,1.6465,1.6465,1.645,1.6453,1.6434,1.643,1.6434,1.6419,1.6424,1.6407,1.641,1.6379,1.6385,1.6381,1.6382,1.6359,1.6361,1.6284,1.6275,1.6345,1.6345,1.6344,0,1.6469,1.6452,1.645,1.6441,1.6438,1.6424,1.6416,1.6426,1.6417,1.641,1.6396,1.6382,1.6371,1.6345,1.6347,1.6334,1.6339,1.6313,1.6337,1.6335,1.6338,1.6339,1.6337,1.6308,1.6307,1.6306,1.6306,0,1.6404,1.6409,1.6397,1.6387,1.6377,1.6369,1.6362,1.6354,1.6364,1.6353,1.6338,1.633,1.6314,1.6299,1.6288,1.6286,1.6297,1.6299,1.6293,1.6289,1.6287,1.6287,1.6367,1.63,1.6301,1.6301,1.6301,1.6302,1.6356,1.6342,1.6339,1.6325,1.6322,1.6316,1.6302,1.6304,1.6292,1.628,1.6287,1.6269,1.6265,1.6251,1.6247,1.6234,1.6244,1.6235,1.6233,1.623,1.6227,1.629,1.6232,1.6232,1.6232,1.6232,1.6232,0,1.6292,1.6292,1.6279,1.627,1.626,1.6273,1.6267,1.6257,1.6242,1.6237,1.6226,1.6209,1.6196,1.6197,1.6185,1.6174,1.6179,1.617,1.617,1.617,1.6219,1.6225,1.6166,1.6166,1.6166,1.6166,1.6166,1.6166,1.6258,1.6234,1.6238,1.6213,1.6212,1.6196,1.6191,1.6185,1.6182,1.6162,1.6152,1.6153,1.6151,1.6139,1.6127,1.6128,1.6122,1.6112,1.6114,1.616,1.6166,1.6172,1.6178,1.611,1.611,1.6066,1.6066,1.6065]}]]